Weather History for West Plains, MO

Change the Weather History Date:

Tuesday, May 7, 2013

  Actual Average Record
Temperature  
Mean Temperature 64 °F 63 °F  
Max Temperature 75 °F 75 °F 89 °F (1952)
Min Temperature 52 °F 52 °F 33 °F (1992)
Degree Days  
Heating Degree Days 1 4  
Month to date heating degree days 86 29  
Since 1 July heating degree days 4448 4291  
Cooling Degree Days 0 2  
Month to date cooling degree days 2 10  
Year to date cooling degree days 21 38  
Growing Degree Days 14 (Base 50)    
Moisture  
Dew Point 53 °F    
Average Humidity 72    
Maximum Humidity 100    
Minimum Humidity 44    
Precipitation  
Precipitation 0.07 in 0.21 in 2.90 in (1961)
Month to date precipitation 1.45 1.48  
Year to date precipitation 17.73 15.81  
Sea Level Pressure  
Sea Level Pressure 30.01 in    
Wind  
Wind Speed 3 mph (NNW)    
Max Wind Speed 10 mph    
Max Gust Speed 14 mph    
Visibility 10 miles    
Events Rain    
T = Trace of Precipitation, MM = Missing Value Source: NWS Daily Summary

Daily Weather History Graph

Daily Weather History Graph

Search for Another Location

Airport:

Trip Planner

Search our weather history database for the weather conditions in past years. The results will help you decide how hot, cold, wet, or windy it might be!

Date:

Astronomy

May. 07, 2013 Rise Set
Actual Time 6:06 AM CDT 8:01 PM CDT
Civil Twilight 5:38 AM CDT 8:30 PM CDT
Nautical Twilight 5:04 AM CDT 9:04 PM CDT
Astronomical Twilight 4:27 AM CDT 9:41 PM CDT
Moon 4:38 AM CDT (5/7) 6:04 PM CDT (5/7)
Length of Visible Light 14h 51m
Length of Day
13h 55m
Waning Crescent, 5% of the Moon is Illuminated
May 7
Waning Crescent
May 9
New
May 17
First Quarter
May 24
Full
May 31
Last Quarter

Hourly Weather History & Observations

Time (CDT) Temp. Dew Point Humidity Pressure Visibility Wind Dir Wind Speed Gust Speed Precip Events Conditions
12:53 AM 57.9 °F 53.1 °F 84% 30.01 in 10.0 mi NW 4.6 mph - N/A   Overcast
1:53 AM 57.9 °F 53.1 °F 84% 30.00 in 10.0 mi NNW 4.6 mph - N/A   Overcast
2:53 AM 57.0 °F 52.0 °F 83% 29.99 in 10.0 mi NW 4.6 mph - N/A   Mostly Cloudy
3:53 AM 57.0 °F 52.0 °F 83% 29.99 in 10.0 mi NW 5.8 mph - N/A   Overcast
4:53 AM 57.0 °F 51.1 °F 81% 29.99 in 10.0 mi North 5.8 mph - N/A   Partly Cloudy
5:53 AM 55.0 °F 50.0 °F 83% 30.00 in 10.0 mi NNW 6.9 mph - N/A   Clear
6:53 AM 57.0 °F 50.0 °F 77% 30.01 in 10.0 mi North 6.9 mph - N/A   Clear
7:53 AM 61.0 °F 51.1 °F 70% 30.03 in 10.0 mi North 8.1 mph - N/A   Clear
8:53 AM 66.0 °F 53.1 °F 63% 30.04 in 10.0 mi NNE 5.8 mph - N/A   Clear
9:53 AM 68.0 °F 53.1 °F 59% 30.04 in 10.0 mi NNE 4.6 mph - N/A   Overcast
10:53 AM 69.1 °F 51.1 °F 53% 30.04 in 10.0 mi Variable 3.5 mph - N/A   Overcast
11:53 AM 73.0 °F 53.1 °F 49% 30.03 in 10.0 mi Variable 6.9 mph - N/A   Overcast
12:53 PM 73.0 °F 51.1 °F 46% 30.02 in 10.0 mi Calm Calm - N/A   Overcast
1:53 PM 73.0 °F 50.0 °F 44% 30.01 in 10.0 mi Calm Calm - N/A   Overcast
2:53 PM 66.0 °F 59.0 °F 78% 30.02 in 2.5 mi WNW 3.5 mph - 0.06 in Rain Rain
3:06 PM 66.2 °F 59.0 °F 78% 30.04 in 6.0 mi WSW 3.5 mph - 0.01 in Rain Light Rain
3:53 PM 66.0 °F 53.1 °F 63% 30.01 in 10.0 mi ESE 3.5 mph - 0.01 in   Overcast
4:53 PM 66.0 °F 54.0 °F 65% 30.00 in 10.0 mi South 4.6 mph - N/A   Overcast
5:53 PM 71.1 °F 53.1 °F 53% 29.99 in 10.0 mi East 4.6 mph - N/A   Mostly Cloudy
6:53 PM 69.1 °F 54.0 °F 58% 29.99 in 10.0 mi Calm Calm - N/A   Clear
7:53 PM 63.0 °F 54.0 °F 72% 29.99 in 10.0 mi Calm Calm - N/A   Clear
8:53 PM 59.0 °F 55.9 °F 90% 30.01 in 10.0 mi Calm Calm - N/A   Clear
9:53 PM 55.0 °F 54.0 °F 96% 30.03 in 10.0 mi Calm Calm - N/A   Scattered Clouds
10:53 PM 55.0 °F 54.0 °F 96% 30.02 in 10.0 mi Calm Calm - N/A   Clear
11:53 PM 54.0 °F 53.1 °F 97% 30.03 in 10.0 mi Calm Calm - N/A   Mostly Cloudy